Cloud_Cover
56 48 48 48 44 44 44 44 44 44 44 44 44 44 44 44 32 24 24 20 20 12 12 8 8 8 8 8 12 12 12 12 8 8 8 8 8 8 8 8 8 8 8 8 8 8 8 8 8 8 8 8 0 0 0 0 0 0 0 8 24 56 76 80 76 64 56 48 44
36 36 32 32 36 36 44 48 44 44 44 44 36 36 32 24 20 20 12 12 12 12 8 8 8 8 12 12 12 12 12 8 8 8 8 8 8 8 8 8 8 8 8 8 8 8 8 8 8 8 8 0 0 0 0 0 0 0 0 0 12 48 80 88 80 76 68 68 48
32 24 24 36 36 44 44 36 36 36 32 24 24 20 20 20 12 12 12 12 12 8 8 8 12 12 12 12 12 12 8 8 8 8 8 12 12 12 12 8 8 8 8 8 8 8 8 8 8 8 8 8 0 8 8 0 0 8 12 12 12 48 88 80 80 80 88 92 64
32 32 32 32 32 32 24 24 24 24 20 20 20 20 12 12 12 12 12 12 12 12 12 12 12 12 12 12 12 12 8 8 8 8 12 12 12 12 12 8 8 8 8 8 8 8 8 8 8 8 8 8 8 8 8 8 12 20 32 32 24 48 80 80 80 80 80 80 76
32 24 24 24 20 20 20 20 20 20 20 20 20 20 20 12 12 12 12 12 12 12 12 20 12 12 12 12 12 12 12 12 12 12 12 12 12 12 12 12 12 12 8 8 8 8 8 8 8 8 8 12 12 12 12 20 36 36 36 44 44 44 64 92 80 80 76 76 76
20 20 20 20 20 20 20 20 20 20 20 20 20 20 20 20 20 20 20 20 20 20 20 20 20 12 12 12 12 12 12 12 12 12 12 12 12 12 12 12 12 8 8 8 8 8 8 8 8 20 24 8 8 12 24 36 48 48 56 68 64 56 64 88 92 92 92 76 80
20 20 20 20 20 20 20 20 20 20 20 20 20 20 20 20 20 20 20 20 20 20 20 20 12 12 12 12 12 12 12 12 12 12 12 12 12 12 8 8 8 8 8 8 8 8 20 48 56 48 32 12 24 36 48 48 48 64 76 80 80 80 80 80 88 92 92 88 80
12 12 12 12 12 12 20 20 20 20 20 20 20 20 20 20 20 20 20 20 20 12 12 12 12 12 12 12 12 12 12 12 12 12 8 8 8 8 8 8 8 8 8 8 8 8 12 32 48 56 48 44 64 64 64 64 56 68 80 88 92 92 88 92 80 88 92 76 88
12 12 12 12 12 12 12 12 20 20 20 20 20 20 20 20 12 12 12 12 12 12 12 12 12 12 12 12 12 12 12 12 8 8 8 8 8 8 8 12 12 12 8 8 8 8 12 36 36 32 32 32 56 68 76 76 68 76 88 92 92 92 92 92 92 92 92 92 92
8 8 12 12 12 12 12 12 12 20 20 20 12 12 12 12 12 12 12 12 12 12 12 12 12 12 12 12 12 12 8 8 8 8 8 8 8 12 12 20 20 12 8 8 8 8 8 12 8 12 24 44 44 68 88 88 92 92 92 92 92 92 92 92 92 92 92 92 92
8 8 8 12 12 12 12 12 12 12 12 12 12 12 12 12 12 12 12 12 12 12 12 8 8 8 8 8 8 8 8 8 8 8 8 8 8 8 8 8 8 8 8 8 8 8 8 8 12 20 32 64 80 92 92 92 92 92 92 92 92 92 92 88 88 92 92 92 92
8 8 8 8 8 12 12 12 12 12 12 12 12 12 12 12 12 12 12 12 8 8 8 8 8 8 8 8 8 8 8 8 8 8 8 8 8 8 8 8 8 8 8 8 8 8 8 8 48 68 76 88 92 92 92 80 80 80 88 88 88 92 92 92 92 92 92 92 92
8 8 8 8 8 8 8 8 8 8 8 8 8 8 12 12 12 8 8 8 8 8 8 8 8 0 0 0 0 0 0 8 8 8 8 8 8 8 8 8 8 8 8 8 12 12 12 12 48 68 76 88 80 80 68 44 44 64 80 80 80 80 80 88 88 92 92 92 92
12 12 12 8 8 8 8 8 8 8 8 8 8 8 8 8 8 8 8 8 8 0 8 8 8 8 8 0 0 8 8 8 8 8 8 8 8 8 12 12 24 24 24 24 36 36 44 48 64 68 76 64 56 44 48 64 76 80 88 92 92 92 92 88 92 92 92 88 88
12 12 12 12 12 8 8 8 8 8 8 8 8 8 8 8 8 0 0 8 8 8 8 8 8 8 8 8 8 8 8 8 8 8 8 8 8 8 8 24 56 68 76 76 68 64 64 64 68 76 76 56 56 64 76 88 92 92 92 92 92 92 92 92 92 92 88 88 92
12 12 12 12 12 12 12 12 12 12 8 8 8 8 8 8 0 0 8 8 8 8 8 8 8 8 8 8 8 8 8 8 8 8 8 8 8 8 20 56 64 64 68 76 68 68 76 80 80 88 88 56 48 76 92 92 92 92 92 92 92 92 92 88 80 80 80 92 92
12 12 12 12 12 12 12 12 12 12 12 8 8 8 8 8 0 0 8 8 8 8 8 8 8 8 8 8 8 8 8 8 8 8 8 0 8 8 20 36 36 44 44 44 48 64 76 92 92 88 76 64 64 80 92 92 92 92 92 92 92 92 92 80 76 76 80 92 92
8 8 8 8 12 12 12 12 12 8 8 8 8 8 0 0 8 8 8 8 8 8 8 8 8 8 8 0 8 8 8 8 0 0 0 8 8 12 12 20 20 20 24 24 56 76 80 92 92 88 76 80 80 88 92 92 92 92 92 92 92 92 88 76 76 80 92 92 92
8 8 8 8 8 8 8 8 8 8 0 0 0 8 12 12 12 8 8 8 8 8 8 8 8 0 0 8 8 0 0 0 0 0 0 8 12 12 12 12 20 20 24 32 64 80 92 88 92 92 92 92 92 92 92 92 92 92 92 92 92 88 80 88 80 88 92 92 92
0 0 0 8 8 0 0 0 0 8 12 20 12 12 20 12 12 8 8 8 8 0 0 0 0 0 0 8 8 0 0 0 0 8 8 20 24 32 24 12 32 56 68 64 68 80 88 80 80 88 88 92 92 92 92 88 88 92 92 92 92 92 92 92 88 92 92 92 92
0 0 0 0 0 0 0 8 20 24 24 20 20 12 8 8 8 0 0 0 0 0 0 0 0 8 8 8 8 12 20 20 20 20 20 20 24 32 36 32 56 80 92 76 68 76 80 80 80 88 88 80 80 80 80 76 80 80 88 88 92 92 92 88 92 92 92 92 92
0 8 8 0 12 24 32 24 32 20 12 8 8 8 0 0 0 8 8 0 8 8 8 8 8 8 8 8 20 20 20 24 24 36 44 44 48 56 64 68 80 88 80 76 80 88 88 80 80 80 80 76 76 80 80 80 80 80 80 80 88 88 88 92 92 92 92 92 92
8 8 8 24 44 44 36 20 12 8 8 0 0 0 0 0 8 8 8 8 8 8 8 8 8 8 12 20 20 20 24 24 32 36 48 68 76 76 76 92 92 88 88 88 92 92 92 92 88 88 80 76 80 80 80 76 76 80 80 88 92 92 92 92 92 92 92 92 92
0 20 32 36 36 32 24 12 8 0 0 0 0 0 0 8 8 8 8 8 8 8 8 8 8 12 20 20 20 24 36 56 76 80 88 92 92 92 88 88 88 80 80 80 92 92 92 92 92 92 92 92 92 88 88 92 88 80 80 88 88 92 92 92 92 92 92 92 80
0 20 36 36 24 20 8 8 0 0 0 0 0 0 0 8 8 8 8 8 8 8 8 8 8 12 24 32 32 44 64 76 80 92 92 92 92 92 92 92 92 88 80 88 92 92 92 92 92 92 92 92 92 92 92 92 92 88 80 76 80 88 92 92 92 92 92 92 88
0 20 32 32 20 12 8 0 0 0 0 0 0 0 0 8 8 8 8 8 8 8 12 24 48 64 64 68 56 56 68 92 92 92 92 92 92 92 92 92 92 92 92 92 92 92 92 92 92 92 92 92 92 92 92 92 92 88 80 76 80 88 92 92 92 92 92 92 88
8 20 24 20 12 8 8 0 0 0 0 0 0 8 8 8 8 8 8 8 8 24 48 56 44 56 68 64 64 56 56 92 92 92 92 92 92 92 88 88 92 92 92 92 92 92 92 92 92 92 92 92 92 92 92 92 92 88 88 80 80 88 88 92 92 92 92 92 92
0 0 0 0 0 0 8 0 0 0 0 0 0 0 0 0 0 0 0 0 32 56 68 76 68 68 68 76 76 76 80 92 92 92 88 88 92 92 92 80 80 88 92 92 92 92 92 92 92 92 92 92 92 92 92 92 92 92 88 80 88 92 92 92 92 92 92 92 92
0 8 8 8 8 8 12 8 8 0 0 0 0 8 8 8 8 0 8 24 32 44 56 64 56 48 64 80 92 92 88 64 88 92 92 92 92 92 92 92 92 88 80 92 92 92 92 92 92 92 92 92 92 92 92 80 88 92 92 88 92 92 92 92 92 92 92 92 92
92 92 92 92 92 92 92 88 44 24 20 12 12 8 8 8 0 0 8 12 24 24 32 36 48 64 64 68 88 92 92 92 92 92 92 92 92 92 92 92 92 92 92 92 92 92 92 92 92 92 92 92 92 92 92 80 88 92 92 92 92 92 92 92 92 88 88 92 88
92 92 92 92 92 92 92 92 56 36 24 20 12 12 8 0 0 0 0 8 8 12 24 36 56 64 64 76 92 92 92 92 92 92 92 92 92 92 92 92 92 92 92 92 92 92 92 92 92 92 92 92 92 92 92 92 92 88 80 92 92 92 92 92 80 80 80 92 88
48 76 92 92 92 92 92 80 56 44 32 24 20 20 12 8 8 8 8 8 8 20 32 36 48 64 64 68 88 92 92 92 92 92 92 92 92 92 92 92 92 92 92 92 92 92 92 92 92 92 92 92 92 92 92 92 92 92 92 92 92 92 92 80 76 80 80 88 92
44 64 80 92 92 92 80 64 44 32 24 24 20 20 12 8 8 8 8 8 8 20 36 56 68 80 80 80 92 92 92 92 92 92 92 92 92 92 92 92 92 92 92 92 92 92 92 92 92 92 92 92 92 92 92 92 92 92 92 92 92 92 88 76 76 80 88 92 88
76 56 56 80 92 68 44 48 36 24 24 24 20 20 12 8 8 8 8 8 8 24 56 92 92 92 92 92 92 92 92 92 92 92 92 92 92 88 88 88 88 92 92 92 92 92 92 92 92 92 92 92 92 92 92 92 92 92 92 92 92 92 92 80 80 88 92 92 80
92 68 48 68 80 56 36 44 36 32 24 24 12 12 12 8 8 12 12 12 20 56 92 92 92 92 92 92 92 92 92 92 92 92 92 92 92 88 80 80 76 80 92 92 92 92 92 92 92 92 92 92 88 76 76 92 92 92 92 92 92 92 92 80 88 92 92 92 88
80 68 56 68 68 48 32 24 20 24 32 24 24 20 12 12 12 20 20 24 48 76 92 92 92 92 92 92 92 92 92 92 92 92 92 92 92 88 88 88 80 88 92 92 92 92 92 92 92 92 92 88 76 68 76 76 92 92 92 92 92 92 92 92 92 92 92 92 92
88 68 48 44 36 24 20 12 12 44 68 64 76 48 24 12 12 12 20 48 36 64 92 92 92 92 92 92 92 92 92 92 92 92 92 92 92 92 92 92 92 92 92 92 92 92 88 88 88 80 80 80 76 76 76 80 92 92 92 92 92 92 92 92 92 92 92 92 92
76 64 44 32 20 12 12 12 24 48 76 76 76 56 36 44 44 44 64 92 92 92 92 92 92 92 92 92 92 92 92 92 92 92 92 92 92 92 92 92 92 92 92 88 88 88 88 88 80 76 80 88 80 80 88 92 92 92 92 92 92 92 92 92 92 92 92 92 92
56 56 64 68 44 32 24 24 48 64 68 68 68 68 76 88 92 92 92 92 92 92 92 92 92 92 92 92 92 92 92 92 92 92 92 92 92 92 92 92 92 88 80 80 88 88 80 76 76 76 80 88 88 88 92 92 92 92 92 92 92 92 92 92 92 92 92 92 92
36 44 68 88 56 32 32 48 48 48 44 44 68 80 88 88 88 92 92 92 92 92 92 92 92 92 92 92 92 92 92 92 92 92 92 92 92 92 92 92 88 88 88 88 88 88 80 76 76 76 80 88 92 92 92 92 92 92 92 92 92 92 92 92 92 92 92 92 92
44 56 76 76 48 36 32 44 32 32 36 44 64 76 80 80 88 92 92 92 92 92 92 92 92 92 92 92 92 92 92 92 92 92 92 92 92 92 92 92 92 92 92 92 92 92 88 88 88 88 88 92 92 92 92 92 92 92 92 92 92 92 92 92 92 92 92 92 92